This is the latest recevied weather packets stored in our database for station/object W4MSI. If no packets are shown the sender has not sent any weather packets the latest 10 day(s).
| Time | Temp. | Humidity | Pressure | Rain* | Wind** | Luminosity | Snow |
|---|---|---|---|---|---|---|---|
| 1777513106 | 13.33° C | 83% | 1014.3 hPa | 0 mm | - | 0 W/m² | - |
| 1777512802 | 13.33° C | 81% | 1014.2 hPa | 0 mm | - | 0 W/m² | - |
| 1777512499 | 13.33° C | 79% | 1014 hPa | 0 mm | - | 0 W/m² | - |
| 1777512196 | 13.89° C | 79% | 1013.9 hPa | 0 mm | - | 0 W/m² | - |
| 1777511893 | 13.89° C | 78% | 1013.9 hPa | 0 mm | - | 0 W/m² | - |
| 1777511591 | 13.89° C | 77% | 1013.8 hPa | 0 mm | - | 0 W/m² | - |
| 1777511289 | 13.89° C | 76% | 1013.7 hPa | 0 mm | - | 0 W/m² | - |
| 1777510983 | 14.44° C | 77% | 1013.8 hPa | 0 mm | - | 0 W/m² | - |
| 1777510681 | 14.44° C | 75% | 1013.7 hPa | 0 mm | - | 0 W/m² | - |
| 1777510376 | 15° C | 74% | 1013.6 hPa | 0 mm | - | 0 W/m² | - |
| 1777510073 | 15° C | 74% | 1013.6 hPa | 0 mm | - | 1 W/m² | - |
| 1777509769 | 15° C | 73% | 1013.6 hPa | 0 mm | - | 2 W/m² | - |
| 1777509465 | 15.56° C | 71% | 1013.5 hPa | 0 mm | - | 3 W/m² | - |
| 1777509163 | 15.56° C | 70% | 1013.4 hPa | 0 mm | - | 5 W/m² | - |
| 1777508860 | 16.11° C | 69% | 1013.5 hPa | 0 mm | - | 9 W/m² | - |
| 1777508557 | 16.11° C | 68% | 1013.7 hPa | 0 mm | - | 11 W/m² | - |
| 1777508254 | 16.67° C | 66% | 1013.5 hPa | 0 mm | - | 15 W/m² | - |
| 1777507951 | 16.67° C | 66% | 1013.5 hPa | 0 mm | - | 20 W/m² | - |
| 1777507648 | 16.67° C | 64% | 1013.6 hPa | 0 mm | - | 23 W/m² | - |
| 1777507345 | 17.22° C | 65% | 1013.4 hPa | 0 mm | - | 28 W/m² | - |
| 1777507042 | 17.22° C | 65% | 1013.4 hPa | 0 mm | - | 34 W/m² | - |
| 1777506740 | 17.22° C | 66% | 1013.2 hPa | 0 mm | - | 35 W/m² | - |
| 1777506436 | 17.22° C | 65% | 1012.8 hPa | 0 mm | - | 39 W/m² | - |
| 1777506132 | 17.78° C | 67% | 1012.9 hPa | 0 mm | - | 44 W/m² | - |
| 1777505827 | 17.78° C | 67% | 1012.9 hPa | 0 mm | - | 44 W/m² | - |
* Rain latest hour (hover to see other rain measurements)
** Current wind speed in m/s (hover to see current wind gust speed)